DELTA 1 DEB

Satellite information

Favourite Embed

Satellite Type and Status

DEBRISIN ORBIT

Key statistics

Satellite DELTA 1 DEB at a glance.

Uptime

18813

Days in orbit

Revolutions

≈ 12.5

Per day

Orbit

SSO

Sun Synchronous Orbit

Inclination

102.4

Latest

Satellite identification and parameters

Extended collection of information and parameters for DELTA 1 DEB.

Object identification

Identified? True

Debris? True

Object name: DELTA 1 DEB

International designator: 1973-086FE

Object number (NORAD): 7196

Object ID (CCSDS): 7196

Country: UNITED STATES OF AMERICA (US)

Current information (Y/N): Y

RCS size: SMALL

Orbital parameters

Period: 115.472 minutes

Inclination: 102.3815 deg

SMA: 7854.987 km

Apoapsis: 1517.082 km

Periapsis: 1436.621 km

RAAN: 112.1726 deg

Eccentricy: 0.0051217

Argument of periapsis: 254.5469 deg

Mean anomaly: 171.4599 deg

Mean motion: 12.47052076 rev/day

Mean motion (dot): -0.00000005 rev/day2

B* drag term: 0.00028974 1/REarth

Two-line elements (TLE)

Creation date: May 10, 2025, 2:32 a.m.

Reference frame: TEME

Reference center: EARTH

Epoch: May 9, 2025, 8:05 p.m. UTC

TLE line 0: 0 DELTA 1 DEB

TLE line 1: 1 07196U 73086FE 25129.83708175 -.00000005 00000-0 28974-3 0 9994

TLE line 2: 2 07196 102.3815 112.1726 0051217 254.5469 171.4599 12.47052076343679

Live tracking on map

Real-time ground track for satellite DELTA 1 DEB.

In-orbit conjunctions

A list of the most updated potential collisions computed for object DELTA 1 DEB.

Target Orbit TCA Probability of collision Miss distance Type
COSMOS 718 LEO 2024-09-01 20:51:44 0.0001450552 69.0 (m) PAYLOAD

Associated space launch

Meteorological satellite using radiometric imaging

DELTA 1 DEB was lifted into orbit during the mission ‘Delta 0300 | NOAA 3’, on board a Delta 0300 space rocket.

The launch took place on Nov. 6, 1973, 5:02 p.m. from Space Launch Complex 2W.

For more information about the launch, click the button.

Launch to space Delta 0300 | NOAA 3
Delta 0300 | NOAA 3

Agency: N/A

Status: Launch Successful

Launch date: Nov. 6, 1973, 5:02 p.m. UTC

Rocket: Delta 0300

Launch pad: Space Launch Complex 2W

Location: Vandenberg SFB, CA, USA

...

Latest news about this satellite

There are no fresh news available about this satellite. Check back as we update our databases every day.


Newsletter sign-up

Weekly statistics, charts and insights to help you stay on top of the space industry.